Showing default

GLOBALSTAR M026, 25873

Orbit data source: Space-Track

GLOBALSTAR M026, 25873 is a payload satellite owned by Globalstar (US) in LEO that was launched on Sun, 25 Jul 1999 UTC via a DELTA 7420-10C launch vehicle from the Air Force Eastern Test Range (AFETR). Payload-class satellites include a variety of spacecraft equipped with specific instruments for various scientific and technological missions. These include communications satellites like Starlink; space stations such as the ISS; scientific satellites like the Hubble; Earth observation satellites from companies like Planet Labs, Umbra, and HawkEye 360; GPS; miniature CubeSats for education and research; and military/defense satellites.

Loading next visibility...
Identifier
25873, 1999-041B
Orbit
LEO
Country
Flag of UnknownUnknown / GLOB
Related business
Manufacturer
SS/Loral
Mission
Non-operational Commercial Communications
Bus & Motor
LS-400, LS-400 AOCS
Mass
450 kg wet, 380 kg dry
Launch date (UTC)
1999-07-25 (26 years ago)
Launch vehicle
DELTA 7420-10C
Launch site
Air Force Eastern Test Range (AFETR)
Object type
Payload
Rocket body
Debris
Shape & HBR
Box + 2 Pan, 6.0 m
Radar Cross Section
5.587 m², Large (>1 m²)

Expand to show TLE details & history
Last TLE update: 14 hours ago

TLE from 14 hours ago
0 GLOBALSTAR M026
1 25873U 99041B   25298.30541565 -.00000063  00000-0  37577-4 0  9996
2 25873  52.0003 241.3747 0001801 112.1379  27.9177 11.06851213162896
Epoch: 2025-10-25T07:19Z
TLE epoch observation values (Epoch: 2025-10-25T07:19:47.912Z)
Latitude
30.46625°
Longitude
-109.738°
Altitude
2,127.194 km
Speed
6.851 km/s
True Right ascension
02h 16m 35s
True Declination
30° 20' 25"
Sunlit
Object was in full shadow at epoch
Visualization orbit readout
Latitude
Unknown
Longitude
Unknown
Altitude
Unknown
Speed
Unknown
Apparent Right ascension
Unknown
Apparent Declination
Unknown
Sunlit
N/A
Visualization observer readout
Local Sidereal Time
16:35:00
Azimuth
Unknown
Elevation
Unknown
Doppler factor
Unknown
Orbital elements
Apogee altitude
2,128.782 km
Perigee altitude
2,125.718 km
Semi-major axis
8,505.387 km
Eccentricity
0.00018
Inclination
52.0003°
RAAN
241.3747°
Arg. of periapsis
112.1379°
True anomaly
27.92736°
Mean anomaly
27.9177°
Eccentric anomaly
27.92253°
Mean motion
2.76695 °/min
Orbital period
130.11 mins
BSTAR
0.000037577
Loading maneuver chart data...
Computing Atmospheric mass density...
Loading historical data...
Loading historical data...
Loading historical data...
Loading historical data...
Loading historical data...
Loading historical data...
Loading historical data...
Other satellites on launch #41 in the year 1999 (1999-07-25 UTC)

Documentation

Showing up to 5 results
|